UTA7775 URSS-USRO

Flight info

Callsign UTA7775
Flight time N/A
Altitude 32000
Route ADNET1S ADNET W79 NZ B145 ER G128 ST G900 KR P135 ANATU L992 NAMOL T376 UTORA A925 HMN R124 ATBAR G486 ATLON ATLON1J
Aircraft B738/M-SDE2E3FGHIRWXY/LB1

Departure

Time N/A
Airport Sochi International Airport (URSS)

Arrival

Time 2026-04-17 11:39
Airport Noyabrsk Airport (USRO)
Time Latitude Longitude Altitude Speed Heading
2026-04-17 11:20 63.38726 76.61385 34566 ft 490 kts 146°
2026-04-17 11:21 63.35651 76.64692 33602 ft 495 kts 165°
2026-04-17 11:21 63.32408 76.67458 32583 ft 504 kts 150°
2026-04-17 11:21 63.29683 76.72270 31568 ft 511 kts 129°
2026-04-17 11:21 63.27764 76.78863 30602 ft 508 kts 107°
2026-04-17 11:22 63.26999 76.86305 30239 ft 481 kts 84°
2026-04-17 11:22 63.27393 76.93346 30145 ft 443 kts 62°
2026-04-17 11:22 63.28747 76.99082 30091 ft 402 kts 40°
2026-04-17 11:22 63.30793 77.02847 29944 ft 366 kts 18°
2026-04-17 11:23 63.33148 77.04266 29543 ft 342 kts 355°
2026-04-17 11:23 63.35411 77.03238 28982 ft 331 kts 331°
2026-04-17 11:23 63.37158 76.99987 28417 ft 332 kts 308°
2026-04-17 11:23 63.38368 76.95615 27985 ft 329 kts 308°
2026-04-17 11:24 63.39846 76.91783 27432 ft 324 kts 319°
2026-04-17 11:24 63.41592 76.88697 27173 ft 316 kts 324°
2026-04-17 11:24 63.43326 76.85752 26771 ft 313 kts 321°
2026-04-17 11:24 63.44964 76.82535 26253 ft 314 kts 316°
2026-04-17 11:25 63.46403 76.78846 25715 ft 317 kts 308°
2026-04-17 11:25 63.47479 76.74536 25305 ft 320 kts 296°
2026-04-17 11:25 63.48073 76.69719 24918 ft 324 kts 284°
2026-04-17 11:25 63.48168 76.64637 24518 ft 330 kts 274°
2026-04-17 11:26 63.47893 76.59574 24122 ft 336 kts 265°
2026-04-17 11:26 63.47092 76.54576 23676 ft 348 kts 251°
2026-04-17 11:26 63.45927 76.49828 23218 ft 348 kts 248°
2026-04-17 11:26 63.44702 76.45177 22777 ft 347 kts 247°
2026-04-17 11:27 63.43462 76.40567 22373 ft 344 kts 247°
2026-04-17 11:27 63.42242 76.36048 22251 ft 334 kts 247°
2026-04-17 11:27 63.41063 76.31678 22162 ft 321 kts 248°
2026-04-17 11:27 63.39932 76.27474 21820 ft 312 kts 248°
2026-04-17 11:28 63.38823 76.23319 21241 ft 311 kts 248°
2026-04-17 11:28 63.37721 76.19177 20642 ft 311 kts 247°
2026-04-17 11:28 63.36640 76.15036 20041 ft 304 kts 257°
2026-04-17 11:28 63.36224 76.10613 19595 ft 285 kts 272°
2026-04-17 11:29 63.36040 76.06217 19079 ft 284 kts 271°
2026-04-17 11:29 63.35830 76.01837 18526 ft 285 kts 271°
2026-04-17 11:29 63.35611 75.97497 17946 ft 284 kts 270°
2026-04-17 11:29 63.35380 75.93082 17394 ft 282 kts 270°
2026-04-17 11:30 63.35152 75.88808 16866 ft 281 kts 269°
2026-04-17 11:30 63.34920 75.84491 16325 ft 280 kts 269°
2026-04-17 11:30 63.34686 75.80196 15796 ft 279 kts 269°
2026-04-17 11:30 63.34451 75.75908 15282 ft 278 kts 268°
2026-04-17 11:31 63.34214 75.71630 14775 ft 277 kts 268°
2026-04-17 11:31 63.33978 75.67386 14276 ft 276 kts 268°
2026-04-17 11:31 63.33740 75.63136 13757 ft 275 kts 267°
2026-04-17 11:31 63.33504 75.58922 13242 ft 274 kts 267°
2026-04-17 11:32 63.33347 75.56144 12971 ft 270 kts 267°
2026-04-17 11:32 63.33114 75.52065 12729 ft 260 kts 267°
2026-04-17 11:32 63.32888 75.48159 12534 ft 249 kts 267°
2026-04-17 11:32 63.32556 75.43206 12149 ft 243 kts 257°
2026-04-17 11:33 63.32025 75.40942 11840 ft 249 kts 230°
2026-04-17 11:33 63.30543 75.38926 11427 ft 254 kts 202°
2026-04-17 11:33 63.28900 75.37524 11026 ft 253 kts 205°
2026-04-17 11:33 63.27280 75.35824 10323 ft 265 kts 220°
2026-04-17 11:34 63.26166 75.32706 9930 ft 256 kts 248°
2026-04-17 11:34 63.25881 75.28830 9113 ft 257 kts 282°
2026-04-17 11:34 63.26555 75.25175 8342 ft 260 kts 310°
2026-04-17 11:34 63.27924 75.22657 7609 ft 263 kts 336°
2026-04-17 11:35 63.29708 75.21802 6861 ft 267 kts
2026-04-17 11:35 63.31448 75.22940 6068 ft 260 kts 32°
2026-04-17 11:35 63.32642 75.25853 5320 ft 256 kts 63°
2026-04-17 11:35 63.33010 75.29602 4836 ft 245 kts 91°
2026-04-17 11:36 63.32571 75.33148 4523 ft 231 kts 117°
2026-04-17 11:36 63.31606 75.35825 4265 ft 216 kts 139°
2026-04-17 11:36 63.30399 75.37498 4120 ft 195 kts 154°
2026-04-17 11:36 63.29137 75.38050 3783 ft 182 kts 195°
2026-04-17 11:37 63.28016 75.36970 3453 ft 174 kts 209°
2026-04-17 11:37 63.26945 75.35798 3050 ft 169 kts 208°
2026-04-17 11:37 63.25904 75.34643 2660 ft 164 kts 211°
2026-04-17 11:37 63.24918 75.33497 2300 ft 157 kts 209°
2026-04-17 11:38 63.23935 75.32548 1935 ft 151 kts 205°
2026-04-17 11:38 63.22941 75.31595 1620 ft 160 kts 206°
2026-04-17 11:38 63.21920 75.30561 1204 ft 161 kts 207°
2026-04-17 11:38 63.20921 75.29507 857 ft 155 kts 205°
2026-04-17 11:39 63.19954 75.28511 644 ft 154 kts 206°
2026-04-17 11:39 63.19000 75.27546 465 ft 142 kts 207°
2026-04-17 11:39 63.18458 75.26980 455 ft 37 kts 205°
2026-04-17 11:39 63.18333 75.26921 455 ft 0 kts 135°
2026-04-17 11:40 63.18315 75.27046 456 ft 1 kts 114°
2026-04-17 11:40 63.18315 75.27048 456 ft 0 kts 114°
2026-04-17 11:41 63.18309 75.27077 454 ft 10 kts 114°
2026-04-17 11:42 63.18279 75.27215 455 ft 8 kts 124°
2026-04-17 11:42 63.18242 75.27222 456 ft 6 kts 194°
2026-04-17 11:42 63.18205 75.27197 456 ft 5 kts 186°
2026-04-17 11:42 63.18195 75.27205 456 ft 3 kts 154°
2026-04-17 11:43 63.18186 75.27227 455 ft 0 kts 115°
2026-04-17 11:43 63.18190 75.27186 456 ft 3 kts 105°
2026-04-17 11:43 63.18185 75.27209 455 ft 2 kts 113°
2026-04-17 11:44 63.18182 75.27226 457 ft 0 kts 112°
2026-04-17 11:44 63.18179 75.27238 458 ft 0 kts 114°